This is the latest recevied weather packets stored in our database for station/object N4AN. If no packets are shown the sender has not sent any weather packets the latest 1 day(s).
| Time | Temp. | Humidity | Pressure | Rain* | Wind** | Luminosity | Snow |
|---|---|---|---|---|---|---|---|
| 1778018688 | 26.67° C | 81% | 1008.6 hPa | 0 mm | 2.24 m/s, 98° | - | - |
| 1778018388 | 26.67° C | 81% | 1008.5 hPa | 0 mm | 1.34 m/s, 194° | - | - |
| 1778018087 | 26.67° C | 81% | 1008.4 hPa | 0 mm | 1.79 m/s, 174° | - | - |
| 1778017787 | 26.67° C | 81% | 1008.3 hPa | 0 mm | 5.36 m/s, 226° | - | - |
| 1778017486 | 26.67° C | 81% | 1008.1 hPa | 0 mm | 1.79 m/s, 233° | - | - |
| 1778017185 | 26.67° C | 81% | 1008.2 hPa | 0 mm | 3.13 m/s, 207° | - | - |
| 1778016885 | 26.67° C | 81% | 1008.2 hPa | 0 mm | 1.34 m/s, 245° | - | - |
| 1778016585 | 26.67° C | 81% | 1008 hPa | 0 mm | 2.68 m/s, 156° | - | - |
| 1778016284 | 26.67° C | 81% | 1008 hPa | 0 mm | 1.79 m/s, 360° | - | - |
| 1778015984 | 26.67° C | 81% | 1008.1 hPa | 0 mm | 2.24 m/s, 215° | - | - |
| 1778015684 | 26.67° C | 80% | 1008.1 hPa | 0 mm | 1.34 m/s, 28° | - | - |
| 1778015384 | 26.67° C | 80% | 1008.1 hPa | 0 mm | 0.89 m/s, 269° | - | - |
| 1778015083 | 27.22° C | 80% | 1008.1 hPa | 0 mm | 3.58 m/s, 245° | - | - |
| 1778014783 | 27.22° C | 80% | 1008.2 hPa | 0 mm | 2.24 m/s, 230° | - | - |
| 1778014483 | 27.22° C | 79% | 1008.2 hPa | 0 mm | 1.79 m/s, 340° | - | - |
| 1778014183 | 27.78° C | 79% | 1008.1 hPa | 0 mm | 1.79 m/s, 318° | - | - |
| 1778013880 | 27.78° C | 78% | 1008.1 hPa | 0 mm | 2.68 m/s, 277° | - | - |
| 1778013580 | 27.78° C | 77% | 1008.1 hPa | 0 mm | 1.34 m/s, 286° | - | - |
| 1778013279 | 27.78° C | 76% | 1008.1 hPa | 0 mm | 1.79 m/s, 135° | - | - |
| 1778012967 | 28.33° C | 76% | 1008.1 hPa | 0 mm | 1.34 m/s, 215° | - | - |
| 1778012666 | 28.33° C | 75% | 1008.2 hPa | 0 mm | 1.34 m/s, 213° | - | - |
| 1778012366 | 28.89° C | 76% | 1008.2 hPa | 0 mm | 2.24 m/s, 240° | - | - |
| 1778012066 | 28.89° C | 75% | 1008.3 hPa | 0 mm | 3.58 m/s, 236° | - | - |
| 1778011763 | 28.89° C | 74% | 1008.3 hPa | 0 mm | 0.45 m/s, 349° | - | - |
| 1778011463 | 29.44° C | 73% | 1008.4 hPa | 0 mm | 1.79 m/s, 197° | - | - |
* Rain latest hour (hover to see other rain measurements)
** Current wind speed in m/s (hover to see current wind gust speed)